GW6878 Weather Reports


time (UTC)temp
C
wind
direction
speed
KPH
gust
KPH
rain 1hr
cm
rain 24hr
cm
rain mn
cm
humidity
%
barometer
mb
20260502164003 13 256 1.6 4.8 0.00 0.00 0.00 51 1013.8
20260502163503 13 236 1.6 4.8 0.00 0.00 0.00 52 1013.8
20260502163003 13 228 3.2 8.0 0.00 0.00 0.00 51 1013.8
20260502162503 13 236 4.8 8.0 0.00 0.00 0.00 50 1013.8
20260502162003 14 238 4.8 8.0 0.00 0.00 0.00 49 1013.7
20260502161717 13 238 4.8 8.0 0.00 0.00 0.00 50 1013.7
20260502161003 13 240 4.8 8.0 0.00 0.00 0.00 51 1013.7
20260502160503 14 232 3.2 8.0 0.00 0.00 0.00 53 1013.6
20260502152003 11 244 0.0 3.2 0.00 0.00 0.00 62 1013.4
20260502151503 11 256 1.6 3.2 0.00 0.00 0.00 62 1013.3
20260502151003 12 289 1.6 3.2 0.00 0.00 0.00 59 1013.4
20260502150719 12 313 1.6 3.2 0.00 0.00 0.00 58 1013.4
20260502130503 10 331 1.6 3.2 0.00 0.00 0.00 62 1012.9
20260502123503 10 35 3.2 4.8 0.00 0.00 0.00 69 1012.9
20260502123003 10 38 3.2 3.2 0.00 0.00 0.00 68 1013.0
20260502122718 10 38 3.2 3.2 0.00 0.00 0.00 68 1013.0
20260502122003 10 51 1.6 3.2 0.00 0.00 0.00 67 1013.1
20260502121503 11 76 1.6 3.2 0.00 0.00 0.00 66 1013.1
20260502121003 11 100 1.6 3.2 0.00 0.00 0.00 66 1013.1
20260502120503 11 124 0.0 3.2 0.00 0.00 0.00 65 1013.2
20260502115715 11 119 1.6 3.2 0.00 0.00 0.00 64 1013.4
20260502115216 11 98 1.6 3.2 0.00 0.00 0.00 64 1013.3
20260502114503 11 61 1.6 3.2 0.00 0.00 0.00 64 1013.3
20260502114003 11 59 1.6 1.6 0.00 0.00 0.00 64 1013.2
20260502113719 11 59 1.6 3.2 0.00 0.00 0.00 64 1013.1
20260502113003 11 59 1.6 3.2 0.00 0.00 0.00 63 1013.0
20260502112503 11 59 1.6 3.2 0.00 0.00 0.00 62 1013.1
20260502112003 11 63 1.6 3.2 0.00 0.00 0.00 61 1013.1
20260502111503 11 69 1.6 3.2 0.00 0.00 0.00 60 1013.2
20260502111003 11 61 1.6 3.2 0.00 0.00 0.00 60 1013.3
20260502110503 11 53 1.6 3.2 0.00 0.00 0.00 61 1013.3
20260502110003 11 58 3.2 4.8 0.00 0.00 0.00 62 1013.3
20260502105503 10 58 3.2 4.8 0.00 0.00 0.00 64 1013.2
20260502105003 10 53 3.2 4.8 0.00 0.00 0.00 65 1013.3
20260502104503 10 57 3.2 4.8 0.00 0.00 0.00 64 1013.3
20260502104003 10 65 3.2 4.8 0.00 0.00 0.00 63 1013.3
20260502103503 10 63 3.2 6.4 0.00 0.00 0.00 62 1013.3
20260502103003 10 65 4.8 6.4 0.00 0.00 0.00 61 1013.4
20260502102503 11 68 4.8 6.4 0.00 0.00 0.00 60 1013.4
20260502102003 11 69 3.2 4.8 0.00 0.00 0.00 60 1013.4
20260502101503 10 68 3.2 4.8 0.00 0.00 0.00 60 1013.3
20260502101003 10 64 3.2 4.8 0.00 0.00 0.00 60 1013.3
20260502100503 10 64 3.2 4.8 0.00 0.00 0.00 60 1013.3
20260502091503 13 0 0.0 0.0 0.00 0.00 0.00 52 1013.5
20260502091003 13 128 0.0 1.6 0.00 0.00 0.00 48 1013.6
20260502090503 12 128 1.6 3.2 0.00 0.00 0.00 48 1013.6
20260502071003 14 145 0.0 3.2 0.00 0.00 0.00 41 1014.2
20260502070503 14 136 0.0 3.2 0.00 0.00 0.00 40 1014.2
20260502070217 14 122 0.0 3.2 0.00 0.00 0.00 40 1014.2
20260502065718 14 105 1.6 3.2 0.00 0.00 0.00 40 1014.1
20260502065003 14 80 3.2 4.8 0.00 0.00 0.00 41 1014.1
20260502064503 14 76 3.2 9.7 0.00 0.00 0.00 41 1014.1
20260502064003 14 86 3.2 9.7 0.00 0.00 0.00 40 1014.1
20260502063503 14 93 3.2 8.0 0.00 0.00 0.00 39 1014.2
20260502063003 14 100 3.2 8.0 0.00 0.00 0.00 39 1014.2
20260502062503 15 111 3.2 6.4 0.00 0.00 0.00 39 1014.2
20260502062003 15 114 3.2 6.4 0.00 0.00 0.00 39 1014.2
20260502061503 15 126 1.6 6.4 0.00 0.00 0.00 39 1014.2
20260502061003 14 164 1.6 3.2 0.00 0.00 0.00 40 1014.3
20260502060503 14 170 1.6 3.2 0.00 0.00 0.00 40 1014.3
20260502060003 15 187 1.6 4.8 0.00 0.00 0.00 39 1014.4
20260502055503 15 212 3.2 8.0 0.00 0.00 0.00 38 1014.4
20260502055003 15 229 3.2 8.0 0.00 0.00 0.00 38 1014.4
20260502054503 15 239 3.2 6.4 0.00 0.00 0.00 38 1014.4
20260502054216 15 235 1.6 4.8 0.00 0.00 0.00 38 1014.4
20260502053503 15 246 3.2 6.4 0.00 0.00 0.00 38 1014.4
20260502053003 15 267 3.2 6.4 0.00 0.00 0.00 37 1014.4
20260502052719 15 279 3.2 6.4 0.00 0.00 0.00 37 1014.4
20260502052003 15 268 3.2 8.0 0.00 0.00 0.00 36 1014.4
20260502051717 15 260 3.2 8.0 0.00 0.00 0.00 36 1014.4
20260502051003 15 246 1.6 6.4 0.00 0.00 0.00 36 1014.3
20260502050503 15 240 1.6 3.2 0.00 0.00 0.00 36 1014.2
20260502050003 15 130 0.0 3.2 0.00 0.00 0.00 36 1014.2
20260502045717 15 149 0.0 3.2 0.00 0.00 0.00 36 1014.1
20260502045003 15 165 1.6 3.2 0.00 0.00 0.00 36 1014.0
20260502044504 15 167 1.6 3.2 0.00 0.00 0.00 35 1013.8
20260502044003 16 179 1.6 6.4 0.00 0.00 0.00 35 1013.9
20260502043503 15 172 1.6 6.4 0.00 0.00 0.00 35 1013.8
20260502043003 16 165 1.6 4.8 0.00 0.00 0.00 35 1013.8
20260502042503 16 174 1.6 3.2 0.00 0.00 0.00 35 1013.8
20260502042003 16 202 0.0 3.2 0.00 0.00 0.00 35 1013.8
20260502041503 16 222 0.0 1.6 0.00 0.00 0.00 35 1013.8
20260502041003 16 226 0.0 3.2 0.00 0.00 0.00 34 1013.7
20260502040503 16 224 1.6 4.8 0.00 0.00 0.00 34 1013.8
20260502040003 17 198 1.6 4.8 0.00 0.00 0.00 33 1013.8
20260502035716 17 178 3.2 9.7 0.00 0.00 0.00 34 1013.8
20260502035003 17 203 4.8 11.3 0.00 0.00 0.00 33 1013.7
20260502034718 17 216 3.2 11.3 0.00 0.00 0.00 33 1013.6
20260502034003 16 222 3.2 8.0 0.00 0.00 0.00 34 1013.5
20260502033716 16 230 3.2 8.0 0.00 0.00 0.00 34 1013.5
20260502033217 16 255 3.2 8.0 0.00 0.00 0.00 34 1013.4
20260502032503 17 240 1.6 4.8 0.00 0.00 0.00 34 1013.4
20260502032003 17 237 1.6 4.8 0.00 0.00 0.00 35 1013.4
20260502031716 17 240 1.6 4.8 0.00 0.00 0.00 35 1013.4
20260502031003 17 253 1.6 6.4 0.00 0.00 0.00 35 1013.3
20260502030718 17 261 1.6 6.4 0.00 0.00 0.00 34 1013.3
20260502030003 17 261 4.8 11.3 0.00 0.00 0.00 34 1013.4
20260502025503 17 259 4.8 14.5 0.00 0.00 0.00 34 1013.4
20260502025217 17 259 4.8 14.5 0.00 0.00 0.00 34 1013.3
20260502024503 17 247 6.4 16.1 0.00 0.00 0.00 35 1013.2
20260502024003 18 243 6.4 12.9 0.00 0.00 0.00 35 1013.2
20260502023503 18 242 6.4 12.9 0.00 0.00 0.00 34 1013.2
20260502023003 18 243 8.0 17.7 0.00 0.00 0.00 35 1013.1
20260502022504 18 246 8.0 17.7 0.00 0.00 0.00 34 1013.1
20260502022003 18 250 6.4 12.9 0.00 0.00 0.00 35 1013.1
20260502021503 18 250 6.4 12.9 0.00 0.00 0.00 37 1013.1
20260502021003 18 244 6.4 11.3 0.00 0.00 0.00 36 1013.1
20260502020718 18 242 6.4 12.9 0.00 0.00 0.00 37 1013.2
20260502020003 18 244 6.4 14.5 0.00 0.00 0.00 36 1013.2
20260502015503 18 241 6.4 14.5 0.00 0.00 0.00 36 1013.1
20260502015003 18 237 8.0 12.9 0.00 0.00 0.00 36 1013.2
20260502014503 18 236 8.0 12.9 0.00 0.00 0.00 36 1013.2
20260502014003 19 234 8.0 12.9 0.00 0.00 0.00 36 1013.3
20260502013503 19 231 8.0 14.5 0.00 0.00 0.00 35 1013.3
20260502013003 19 232 8.0 14.5 0.00 0.00 0.00 34 1013.3
20260502012503 20 233 8.0 14.5 0.00 0.00 0.00 34 1013.4
20260502012003 20 231 8.0 12.9 0.00 0.00 0.00 33 1013.3
20260502011503 20 226 9.7 16.1 0.00 0.00 0.00 32 1013.4
20260502011003 20 222 11.3 19.3 0.00 0.00 0.00 32 1013.5
20260502010503 20 220 12.9 19.3 0.00 0.00 0.00 31 1013.5
20260502010003 20 220 12.9 22.5 0.00 0.00 0.00 30 1013.5
20260502005503 21 222 12.9 24.1 0.00 0.00 0.00 31 1013.5
20260502005003 21 218 12.9 24.1 0.00 0.00 0.00 31 1013.5
20260502004503 21 218 11.3 24.1 0.00 0.00 0.00 30 1013.6
20260502004003 21 220 11.3 17.7 0.00 0.00 0.00 31 1013.6
20260502003503 21 222 11.3 19.3 0.00 0.00 0.00 29 1013.7
20260502003003 21 216 12.9 22.5 0.00 0.00 0.00 28 1013.7
20260502002503 21 210 11.3 22.5 0.00 0.00 0.00 29 1013.7
20260502002003 22 204 9.7 17.7 0.00 0.00 0.00 28 1013.8
20260502001503 21 205 8.0 16.1 0.00 0.00 0.00 26 1013.8
20260502001216 22 210 8.0 16.1 0.00 0.00 0.00 26 1013.8
20260502000717 21 201 8.0 12.9 0.00 0.00 0.00 27 1013.8
20260502000218 21 184 9.7 20.9 0.00 0.00 0.00 26 1013.8
20260501235503 21 186 6.4 20.9 0.00 0.00 0.00 25 1013.8
20260501235003 21 190 6.4 17.7 0.00 0.00 0.00 26 1013.8
20260501234717 21 187 8.0 19.3 0.00 0.00 0.00 25 1013.9
20260501234003 22 197 9.7 19.3 0.00 0.00 0.00 25 1014.0
20260501233503 22 187 9.7 19.3 0.00 0.00 0.00 25 1014.0
20260501233003 22 180 9.7 16.1 0.00 0.00 0.00 25 1014.1
20260501232503 22 179 8.0 14.5 0.00 0.00 0.00 24 1014.2
20260501232003 22 173 8.0 17.7 0.00 0.00 0.00 25 1014.2
20260501231503 22 173 9.7 17.7 0.00 0.00 0.00 25 1014.2
20260501231003 22 168 8.0 17.7 0.00 0.00 0.00 25 1014.2
20260501230504 22 163 9.7 19.3 0.00 0.00 0.00 25 1014.3
20260501230218 22 168 9.7 19.3 0.00 0.00 0.00 26 1014.3
20260501225503 22 171 8.0 17.7 0.00 0.00 0.00 24 1014.4
20260501225003 22 172 9.7 17.7 0.00 0.00 0.00 24 1014.5
20260501224503 22 181 9.7 17.7 0.00 0.00 0.00 24 1014.5
20260501224218 22 178 9.7 19.3 0.00 0.00 0.00 24 1014.6
20260501223503 22 164 8.0 19.3 0.00 0.00 0.00 24 1014.8
20260501223003 22 156 6.4 22.5 0.00 0.00 0.00 23 1014.8
20260501222503 23 183 8.0 22.5 0.00 0.00 0.00 23 1014.9
20260501222003 22 215 9.7 20.9 0.00 0.00 0.00 24 1015.0
20260501221503 22 214 9.7 20.9 0.00 0.00 0.00 24 1015.0
20260501221003 22 188 8.0 19.3 0.00 0.00 0.00 23 1015.0
20260501220503 22 172 6.4 12.9 0.00 0.00 0.00 24 1015.1
20260501220003 22 197 6.4 12.9 0.00 0.00 0.00 24 1015.1
20260501215503 22 209 8.0 20.9 0.00 0.00 0.00 24 1015.2
20260501215003 23 195 9.7 20.9 0.00 0.00 0.00 24 1015.4
20260501214503 22 167 6.4 14.5 0.00 0.00 0.00 25 1015.5
20260501214003 21 157 6.4 14.5 0.00 0.00 0.00 24 1015.5
20260501213503 22 167 11.3 24.1 0.00 0.00 0.00 24 1015.6
20260501213003 22 173 11.3 24.1 0.00 0.00 0.00 24 1015.6
20260501212503 21 171 8.0 17.7 0.00 0.00 0.00 24 1015.7
20260501212003 21 178 8.0 16.1 0.00 0.00 0.00 23 1015.7
20260501211503 22 197 9.7 20.9 0.00 0.00 0.00 25 1015.9
20260501211003 22 185 9.7 20.9 0.00 0.00 0.00 23 1015.9
20260501210503 21 154 8.0 20.9 0.00 0.00 0.00 25 1015.9
20260501210003 21 162 6.4 17.7 0.00 0.00 0.00 25 1016.1
20260501205503 21 168 6.4 19.3 0.00 0.00 0.00 24 1015.9
20260501205003 22 152 8.0 19.3 0.00 0.00 0.00 24 1016.1
20260501204503 22 154 6.4 17.7 0.00 0.00 0.00 24 1016.1
20260501204003 21 176 8.0 19.3 0.00 0.00 0.00 25 1016.1
20260501203504 22 167 8.0 19.3 0.00 0.00 0.00 23 1016.2
20260501203003 22 140 6.4 17.7 0.00 0.00 0.00 24 1016.2
20260501202503 21 154 6.4 19.3 0.00 0.00 0.00 26 1016.2
20260501202003 21 170 8.0 22.5 0.00 0.00 0.00 24 1016.3
20260501201503 21 169 8.0 22.5 0.00 0.00 0.00 24 1016.3
20260501201003 21 166 8.0 20.9 0.00 0.00 0.00 25 1016.3
20260501200503 22 181 8.0 20.9 0.00 0.00 0.00 24 1016.4
20260501200003 22 174 8.0 19.3 0.00 0.00 0.00 23 1016.4
20260501195503 22 164 9.7 19.3 0.00 0.00 0.00 24 1016.5
20260501195003 22 181 9.7 17.7 0.00 0.00 0.00 24 1016.4
20260501194503 21 181 11.3 20.9 0.00 0.00 0.00 24 1016.4
20260501194003 21 180 11.3 20.9 0.00 0.00 0.00 24 1016.5
20260501193503 22 191 11.3 22.5 0.00 0.00 0.00 25 1016.5
20260501193003 21 186 9.7 22.5 0.00 0.00 0.00 24 1016.5
20260501192503 21 169 9.7 20.9 0.00 0.00 0.00 26 1016.6
20260501192003 21 168 9.7 20.9 0.00 0.00 0.00 24 1016.7
20260501191503 21 181 11.3 17.7 0.00 0.00 0.00 24 1016.8
20260501191003 21 182 9.7 20.9 0.00 0.00 0.00 24 1016.8
20260501190503 21 169 11.3 30.6 0.00 0.00 0.00 25 1016.8
20260501190003 21 173 12.9 30.6 0.00 0.00 0.00 26 1016.8
20260501185503 22 181 12.9 24.1 0.00 0.00 0.00 25 1016.8
20260501185003 21 178 9.7 24.1 0.00 0.00 0.00 25 1016.8
20260501184504 21 177 9.7 16.1 0.00 0.00 0.00 27 1016.9
20260501184216 21 182 11.3 19.3 0.00 0.00 0.00 27 1016.9
20260501183717 21 178 9.7 25.7 0.00 0.00 0.00 28 1016.8
20260501183003 20 184 11.3 25.7 0.00 0.00 0.00 27 1016.9
20260501182503 21 199 9.7 19.3 0.00 0.00 0.00 27 1017.0
20260501182003 20 196 9.7 22.5 0.00 0.00 0.00 27 1017.0
20260501181503 21 178 9.7 22.5 0.00 0.00 0.00 27 1017.0
20260501181218 20 171 11.3 22.5 0.00 0.00 0.00 28 1017.0
20260501180503 20 164 9.7 22.5 0.00 0.00 0.00 28 1017.1
20260501180003 20 170 9.7 17.7 0.00 0.00 0.00 28 1017.1
20260501175503 20 179 11.3 22.5 0.00 0.00 0.00 27 1017.1
20260501175003 19 171 9.7 22.5 0.00 0.00 0.00 26 1017.1
20260501174503 20 165 9.7 19.3 0.00 0.00 0.00 27 1017.2
20260501174003 20 171 9.7 19.3 0.00 0.00 0.00 28 1017.2
20260501173503 19 169 11.3 22.5 0.00 0.00 0.00 28 1017.3
20260501173003 18 169 12.9 32.2 0.00 0.00 0.00 28 1017.3
20260501172503 18 172 12.9 32.2 0.00 0.00 0.00 28 1017.3
20260501172003 19 171 11.3 24.1 0.00 0.00 0.00 28 1017.2
20260501171503 18 166 8.0 24.1 0.00 0.00 0.00 30 1017.3
20260501171003 18 154 4.8 11.3 0.00 0.00 0.00 32 1017.2
20260501170718 17 157 3.2 11.3 0.00 0.00 0.00 31 1017.3
20260501170003 17 215 3.2 8.0 0.00 0.00 0.00 32 1017.3
20260501165503 17 219 4.8 9.7 0.00 0.00 0.00 35 1017.3
20260501165003 17 196 6.4 11.3 0.00 0.00 0.00 34 1017.2